Milwaukee Timmerman, WI

1:37 AM CDT on May 30, 2017 (GMT -0500)
Timmerman

Weather History for KMWC - February, 2012

Change the Weather History Date:

Friday, February 3, 2012

  Actual Average Record
Temperature  
Mean Temperature 34 °F -  
Max Temperature 41 °F 29 °F 52 °F (1992)
Min Temperature 28 °F 15 °F -13 °F (1970)
Degree Days  
Heating Degree Days 30    
Moisture  
Dew Point 29 °F    
Average Humidity 88    
Maximum Humidity 100    
Minimum Humidity 75    
Precipitation  
Precipitation 0.00 in - - ()
Sea Level Pressure  
Sea Level Pressure 30.43 in    
Wind  
Wind Speed 2 mph (NE)    
Max Wind Speed 8 mph    
Max Gust Speed -    
Visibility 6 miles    
Events      
Averages and records for this station are not official NWS values.
T = Trace of Precipitation, MM = Missing Value Source: NWS Daily Summary

Daily Weather History Graph

Daily Weather History Graph

Search for Another Location

Airport or City:

Trip Planner

Search our weather history database for the weather conditions in past years. The results will help you decide how hot, cold, wet, or windy it might be!

Date:

Astronomy

Feb. 03, 2012 Rise Set
Actual Time 7:05 AM CST 5:06 PM CST
Civil Twilight 6:35 AM CST 5:36 PM CST
Nautical Twilight 6:01 AM CST 6:10 PM CST
Astronomical Twilight 5:28 AM CST 6:43 PM CST
Moon 1:04 PM CST (2/3) 3:44 AM CST (2/3)
Length of Visible Light 11h 00m
Length of Day
10h 00m
Waxing Gibbous, 82% of the Moon is Illuminated
Feb 3
Waxing Gibbous
Feb 7
Full
Feb 14
Last Quarter
Feb 21
New
Feb 29
First Quarter

Hourly Weather History & Observations

Time (CST) Temp. Windchill Dew Point Humidity Pressure Visibility Wind Dir Wind Speed Gust Speed Precip Events Conditions
12:15 AM 30.2 °F 26.7 °F 28.4 °F 93% 30.43 in 4.0 mi NNW 3.5 mph - N/A   Overcast
12:35 AM 30.2 °F - 28.4 °F 93% 30.43 in 4.0 mi Calm Calm - N/A   Overcast
12:55 AM 30.2 °F - 28.4 °F 93% 30.43 in 4.0 mi Calm Calm - N/A   Overcast
1:15 AM 30.2 °F - 28.4 °F 93% 30.43 in 4.0 mi Calm Calm - N/A   Overcast
1:35 AM 30.2 °F - 28.4 °F 93% 30.44 in 4.0 mi Calm Calm - N/A   Overcast
1:55 AM 30.2 °F - 28.4 °F 93% 30.44 in 4.0 mi Calm Calm - N/A   Overcast
2:15 AM 30.2 °F - 28.4 °F 93% 30.44 in 4.0 mi Calm Calm - N/A   Overcast
2:35 AM 30.2 °F - 28.4 °F 93% 30.44 in 3.0 mi Calm Calm - N/A   Overcast
2:55 AM 30.2 °F - 28.4 °F 93% 30.44 in 4.0 mi Calm Calm - N/A   Overcast
3:15 AM 30.2 °F - 28.4 °F 93% 30.44 in 3.0 mi Calm Calm - N/A   Overcast
3:35 AM 30.2 °F - 28.4 °F 93% 30.45 in 3.0 mi Calm Calm - N/A   Overcast
3:55 AM 30.2 °F - 28.4 °F 93% 30.46 in 3.0 mi Calm Calm - N/A   Overcast
4:15 AM 30.2 °F - 28.4 °F 93% 30.46 in 3.0 mi Calm Calm - N/A   Overcast
4:35 AM 30.2 °F - 28.4 °F 93% 30.46 in 3.0 mi Calm Calm - N/A   Overcast
4:55 AM 30.2 °F - 28.4 °F 93% 30.46 in 3.0 mi Calm Calm - N/A   Overcast
5:15 AM 30.2 °F - 28.4 °F 93% 30.47 in 3.0 mi Calm Calm - N/A   Overcast
5:35 AM 30.2 °F 26.7 °F 28.4 °F 93% 30.47 in 3.0 mi North 3.5 mph - N/A   Overcast
5:55 AM 30.2 °F 26.7 °F 28.4 °F 93% 30.47 in 3.0 mi NNW 3.5 mph - N/A   Overcast
6:50 AM 28.4 °F 24.6 °F 28.4 °F 100% 30.48 in 3.0 mi North 3.5 mph - N/A   Overcast
7:50 AM 30.2 °F 24.3 °F 28.4 °F 93% 30.49 in 2.0 mi NNE 5.8 mph - N/A   Overcast
8:50 AM 30.2 °F - 28.4 °F 93% 30.48 in 2.5 mi Calm Calm - N/A   Overcast
9:50 AM 30.2 °F - 28.4 °F 93% 30.49 in 3.0 mi Calm Calm - N/A   Overcast
10:45 AM 32.0 °F - 28.4 °F 87% 30.48 in 3.0 mi Calm Calm - N/A   Overcast
11:50 AM 33.8 °F - 28.4 °F 81% 30.47 in 4.0 mi Calm Calm - N/A   Overcast
12:45 PM 33.8 °F 29.6 °F 28.4 °F 81% 30.44 in 4.0 mi NNE 4.6 mph - N/A   Overcast
1:45 PM 41.0 °F 38.0 °F 35.6 °F 81% 30.04 in 5.0 mi NNE 4.6 mph - N/A   Overcast
2:45 PM 33.8 °F 30.8 °F 28.4 °F 81% 30.44 in 5.0 mi NE 3.5 mph - N/A   Overcast
3:45 PM 33.8 °F 28.6 °F 28.4 °F 81% 30.45 in 7.0 mi ENE 5.8 mph - N/A   Overcast
4:45 PM 33.8 °F 28.6 °F 28.4 °F 81% 30.44 in 7.0 mi NNE 5.8 mph - N/A   Overcast
5:45 PM 33.8 °F 28.6 °F 28.4 °F 81% 30.44 in 10.0 mi NE 5.8 mph - N/A   Overcast
6:45 PM 33.8 °F 29.6 °F 28.4 °F 81% 30.44 in 10.0 mi NNE 4.6 mph - N/A   Overcast
7:45 PM 33.8 °F 29.6 °F 28.4 °F 81% 30.43 in 10.0 mi NE 4.6 mph - N/A   Overcast
8:15 PM 33.8 °F 29.6 °F 30.2 °F 87% 30.42 in 10.0 mi ENE 4.6 mph - N/A   Overcast
8:35 PM 33.8 °F 28.6 °F 30.2 °F 87% 30.42 in 10.0 mi ENE 5.8 mph - N/A   Overcast
8:45 PM 35.6 °F 32.8 °F 28.4 °F 75% 30.42 in 10.0 mi NE 3.5 mph - N/A   Overcast
8:55 PM 33.8 °F 27.7 °F 30.2 °F 87% 30.42 in 10.0 mi NE 6.9 mph - N/A   Overcast
9:15 PM 33.8 °F 27.0 °F 30.2 °F 87% 30.41 in 10.0 mi NE 8.1 mph - N/A   Overcast
9:35 PM 33.8 °F 27.7 °F 30.2 °F 87% 30.41 in 10.0 mi NE 6.9 mph - N/A   Overcast
9:55 PM 33.8 °F 29.6 °F 30.2 °F 87% 30.40 in 10.0 mi NE 4.6 mph - N/A   Overcast
10:15 PM 33.8 °F 27.7 °F 30.2 °F 87% 30.40 in 10.0 mi NE 6.9 mph - N/A   Overcast
10:35 PM 33.8 °F 27.0 °F 28.4 °F 81% 30.38 in 10.0 mi NE 8.1 mph - N/A   Overcast
10:55 PM 33.8 °F 27.7 °F 28.4 °F 81% 30.38 in 10.0 mi NE 6.9 mph - N/A   Overcast
11:15 PM 33.8 °F 28.6 °F 28.4 °F 81% 30.38 in 10.0 mi ENE 5.8 mph - N/A   Overcast
11:35 PM 33.8 °F 28.6 °F 28.4 °F 81% 30.38 in 10.0 mi NE 5.8 mph - N/A   Overcast
11:55 PM 33.8 °F 27.7 °F 28.4 °F 81% 30.38 in 10.0 mi ENE 6.9 mph - N/A   Overcast